Regional Weather Roundup
Issued by NWS

Home | Current Version | Previous Version | Text Only | Print | Product List | Glossary Off
Versions: 1 2 3 4 5 6 7 8 9 10 11 12 13 14 15 16 17 18 19 20 21 22 23 24 25 26 27 28 29 30 31 32 33 34 35 36 37 38 39 40 41 42 43 44 45 46 47 48 49 50

000
ASUS45 KTFX 111619
RWRMT
MONTANA HOURLY WEATHER ROUNDUP
NATIONAL WEATHER SERVICE GREAT FALLS MT
1019 AM MDT FRI JUL 11 2014

NOTE: "FAIR" INDICATES FEW OR NO CLOUDS BELOW 12000 FEET WITH NO
SIGNIFICANT WEATHER AND/OR OBSTRUCTIONS TO VISIBILITY.

* THESE STATIONS ARE NOT UNDER NWS QUALITY CONTROL. THEY DO NOT
   REPORT WEATHER SUCH AS PRECIPITATION OR FOG.

MTZ001>007-043-111700-
WEST OF THE DIVIDE
CITY           SKY/WX    TMP DP  RH WIND       PRES   REMARKS
KALISPELL      SUNNY     73  50  44 CALM      30.09S
MISSOULA       SUNNY     73  46  38 W7        30.08S
BUTTE          PTCLDY    63  45  52 CALM      30.20F
MULLAN PASS    SUNNY     64  43  47 VRB3      30.19S
* ESSEX        N/A      N/A N/A N/A N/A        N/A
* LINCOLN      N/A       59  49  70 NE13G21    N/A
* LOOKOUT PASS N/A       67  46  47 SE1G6      N/A
* POLSON       N/A       69  52  55 N3G9       N/A
* RONAN APT    SUNNY     73  54  51 N/A        N/A
* SEELEY LAKE  N/A       68  49  51 E2         N/A
* THOMP F APT  SUNNY     70  50  49 S5G11      N/A
* YAAK HILL    N/A       72  51  48 S1         N/A
$$

MTZ008-052>055-111700-
SOUTHWEST MONTANA
CITY           SKY/WX    TMP DP  RH WIND       PRES   REMARKS
BOZEMAN        PTCLDY    70  52  53 S9        30.15S
DILLON         PTCLDY    70  46  42 NE13      30.15R
W YELLOWSTONE  PTCLDY    70  45  41 N/A       30.23F
* THREE FORKS  PTCLDY    70  70 100 N8         N/A
* BOULDER HILL N/A       56  49  77 N14G19     N/A
* MONIDA PASS  N/A       67  47  49 E8         N/A
* RAYNOLDS PAS N/A       63  20  19 NE10       N/A
* WHITEHALL    N/A       70  50  49 E7G12      N/A
* WISE RIVER   N/A       62  46  56 NE4        N/A
$$

MTZ009>010-012-014-046-048-049-054-111700-
EAST SLOPES AND CENTRAL MONTANA
CITY           SKY/WX    TMP DP  RH WIND       PRES   REMARKS
CUT BANK       SUNNY     61  46  58 VRB5      30.24F
GREAT FALLS    CLOUDY    61  46  58 NE10      30.22R
HELENA         PTSUNNY   66  52  61 N14       30.18S
* CONRAD       SUNNY     61  57  87 NW6        N/A
* DEARBORN     N/A       61  49  65 VRB9G14    N/A
* EAST GLACIER N/A       56  43  62 S4         N/A
* MONARCH      N/A       53  50  90 NW8        N/A
* ROGERS PASS  N/A       52  44  74 SW3G11     N/A
* SAINT MARY   N/A       57  46  67 N3         N/A
* SWEET GRASS  N/A       57  51  80 NE8        N/A
* WHITE SULPH  N/A       63  54  73 NW12       N/A
$$

MTZ011-013-016-021-035-040-045-047-050-051-111700-
NORTH CENTRAL MONTANA
CITY           SKY/WX    TMP DP  RH WIND       PRES   REMARKS
HAVRE          CLOUDY    63  48  58 NE8       30.20R
* CHINOOK      PTCLDY    63  52  68 W6        30.19R
* FORT BENTON  PTCLDY    64  48  56 N10G16    30.20S
* CHESTER      N/A       60  48  65 NE9G15     N/A
* DENTON       N/A       66  52  61 NW4        N/A
* GEYSER       N/A       62  53  73 N6         N/A
* JUDITH GAP   N/A       66  57  73 W6G11      N/A
* LOMA         N/A       63  49  60 N13G19     N/A
$$

MTZ017>020-022>027-061-062-111700-
NORTHEAST MONTANA
CITY           SKY/WX    TMP DP  RH WIND       PRES   REMARKS
GLASGOW        PTCLDY    68  55  63 N8        30.10F
GLENDIVE       PTCLDY    75  48  39 NE9       30.07F
JORDAN         SUNNY     73  52  48 NE9       30.10R
SIDNEY         PTSUNNY   70  57  64 N13       30.07F
WOLF POINT     PTCLDY    72  54  53 N8        30.10R
* BEAVER HILL  N/A       73  45  37 NE6        N/A
* CIRCLE       N/A       70  57  64 N3G11      N/A
* LINDSAY DVD  N/A       71  52  51 N8         N/A
* NAVAJO       N/A       65  49  56 N16        N/A
$$

MTZ028>042-056>058-111700-
SOUTHCENTRAL AND SOUTHEAST MONTANA
CITY           SKY/WX    TMP DP  RH WIND       PRES   REMARKS
BAKER          PTCLDY    77  52  42 N18G26    30.09S
BILLINGS       PTSUNNY   70  55  59 NE15      30.14R
LIVINGSTON     SUNNY     70  54  57 E21G28    30.18S
MILES CITY     SUNNY     73  54  51 E16G24    30.07R
* LAUREL APT   SUNNY     70  54  57 N8         N/A
* ROUNDUP APT  SUNNY     72  48  43 E9         N/A
* ALZADA       N/A       77  64  64 N11        N/A
* HYSHAM       N/A       72  49  44 E14G23     N/A
* REED POINT   N/A       67  58  73 E6         N/A
* ROSCOE HILL  N/A       66  51  59 W4G9       N/A
$$

REGIONAL REPORTS...DAKOTAS
CITY           SKY/WX    TMP DP  RH WIND       PRES   REMARKS
WILLISTON      CLOUDY    70  52  53 N15       30.07R
DICKINSON      PTCLDY    72  55  55 N9        30.05R
CROSBY         SUNNY     63  55  75 NW14G20   30.06S
TIOGA          SUNNY     64  55  73 N15G23    30.08S
WATFORD CITY   SUNNY     64  54  70 NW12G17   30.06R
BISMARCK       PTCLDY    79  63  58 N16G23    29.99R
GRAND FORKS    PTCLDY    79  68  69 N9        29.87R
FARGO          SUNNY     81  72  74 NW7       29.87R HI  85
BUFFALO SD     SUNNY     75  61  62 NE18G28   30.01R
RAPID CITY     PTCLDY    82  63  53 N9        30.01R HI  83
$$

REGIONAL REPORTS...WYOMING/IDAHO/WASHINGTON
CITY           SKY/WX    TMP DP  RH WIND       PRES   REMARKS
GILLETTE       PTCLDY    82  57  43 SE7       30.06S HI  82
SHERIDAN       SUNNY     77  55  47 N12       30.09R
CODY           PTCLDY    70  54  57 N20       30.16R
YELLOWSTONE LA SUNNY     61  48  62 E3        30.35S
SALMON         SUNNY     73  45  37 N3        30.05F
MULLAN PASS    SUNNY     64  43  47 VRB3      30.19S
SAND POINT     SUNNY     73  48  41 NE10G17   30.00S
SPOKANE        SUNNY     73  48  41 E10       29.99R
$$

REGIONAL REPORTS...ALBERTA
CITY           SKY/WX    TMP DP  RH WIND       PRES   REMARKS
CALGARY        SMOKE     59  43  56 SE8       30.21S
LETHBRIDGE     PTSUNNY   59  46  62 E5        30.23F
MEDICINE HAT   PTCLDY    63  48  58 N6        30.20S
EDMONTON       N/A       63  50  63 W8        30.14S
WATERTON GATE  N/A       57  48  72 E8         N/A
CARDSTON       N/A       59  50  72 E3         N/A
MILK RIVER     N/A       59  46  62 NW8        N/A
$$

REGIONAL REPORTS...SASKATCHEWAN
CITY           SKY/WX    TMP DP  RH WIND       PRES   REMARKS
SWIFT CURRENT  PTSUNNY   57  52  83 NW14      30.14R
MOOSE JAW      PTCLDY    64  55  73 NW17G23   30.09R
REGINA         PTSUNNY   63  54  73 NW17G25   30.06R
VAL MARIE      N/A       63  52  68 N9         N/A
ASSINIBOIA     N/A       63  50  63 NW16G22    N/A
CORONACH       N/A       66  50  56 NW14       N/A

$$




USA.gov is the U.S. government's official web portal to all federal, state and local government web resources and services.